Location: Bégole
(43.1574°N, 0.3291°E)
Time: 13:15:49
(UTC+00:00)

ATLAS CENTAUR R/B - Pass Details

Date: 28 January 2023
Orbit: 450 x 653 km, 64.7° (Epoch: 19 March)

Event Time Altitude Azimuth Distance (km) Brightness Sun altitude
Rises 17:31:55 0° 186° (S) 2,978 5.4 -5.4°
Reaches altitude 10° 17:34:27 10° 175° (S) 2,070 4.5 -5.8°
Maximum altitude 17:38:34 30° 115° (ESE) 1,164 2.6 -6.5°
Drops below altitude 10° 17:42:37 10° 54° (NE) 2,038 3.6 -7.2°
Enters shadow 17:43:15 - 51° (NE) 2,256 3.8 -7.3°
